Simultaneous Nadir Overpasses (SNOs) Predictions

Prediction of SNOs between LANDSAT-8 and NOAA-19 Satellite Orbit:

Table of predicted SNOs for the next 14.0 days since TLE Epoch: 8/12/2023
Index Date (LANDSAT-8) Time (LANDSAT-8) Lat,Lon (LANDSAT-8) SZA (LANDSAT-8 ) Date (NOAA-19) Time (NOAA-19) Lat,Lon (NOAA-19) SZA (NOAA-19 ) Distance(km) Time Diff (sec)
1 08/13/2023 05:03:05 80.94, 141.65 67.99 08/13/2023 05:03:01 80.94, 141.67 67.98 0.64 4
2 08/15/2023 11:26:18 80.94, 45.77 68.68 08/15/2023 11:26:25 80.94, 45.93 68.70 2.78 7
3 08/17/2023 17:00:05 -80.92, 142.18 110.64 08/17/2023 16:58:53 -80.93, 142.32 110.65 2.71 72
4 08/17/2023 17:49:31 80.93, -50.15 69.38 08/17/2023 17:49:50 80.93, -50.25 69.39 1.89 19
5 08/19/2023 23:23:17 -80.94, 46.58 109.86 08/19/2023 23:22:17 -80.93, 46.69 109.88 1.96 60
6 08/20/2023 00:12:43 80.94,-145.76 70.16 08/20/2023 00:13:13 80.94,-145.73 70.17 0.75 30
7 08/22/2023 05:46:30 -80.93, -49.41 109.13 08/22/2023 05:45:42 -80.93, -49.39 109.14 0.62 48
8 08/22/2023 06:35:56 80.93, 118.23 70.89 08/22/2023 06:36:37 80.94, 118.36 70.92 2.50 41
9 08/24/2023 12:09:42 -80.93,-145.09 108.33 08/24/2023 12:09:06 -80.93,-145.16 108.36 1.34 36



Historial Predications of SNOs between LANDSAT-8 and NOAA-19
